Regional Weather Roundup
Issued by NWS

Home | Current Version | Previous Version | Text Only | Print | Product List | Glossary Off
Versions: 1 2 3 4 5 6 7 8 9 10 11 12 13 14 15 16 17 18 19 20 21 22 23 24 25 26 27 28 29 30 31 32 33 34 35 36 37 38 39 40 41 42 43 44 45 46 47 48 49 50

000
ASUS43 KLOT 272204
RWRIL

ILLINOIS REGIONAL WEATHER ROUNDUP
NATIONAL WEATHER SERVICE CHICAGO/ROMEOVILLE IL
500 PM CDT SAT MAY 27 2017

NOTE: "FAIR" INDICATES FEW OR NO CLOUDS BELOW 12,000 FEET WITH NO
SIGNIFICANT WEATHER AND/OR OBSTRUCTIONS TO VISIBILITY.

* THESE STATIONS ARE NOT UNDER NWS QUALITY CONTROL. THEY ALSO MAY NOT
  REPORT WEATHER SUCH AS PRECIPITATION OR FOG.

ILZ001-002-007-009-015-016-024-272300-
NORTHWEST ILLINOIS

CITY           SKY/WX    TMP DP  RH WIND       PRES   REMARKS
MOLINE         CLOUDY    74  62  66 E9        29.83F
STERLING*      CLOUDY    75  63  66 CALM      29.85R
SAVANNA*       CLOUDY    72  59  63 SW5       29.85R
$$

ILZ003-004-008-010-011-017-018-272300-
NORTH CENTRAL ILLINOIS

CITY           SKY/WX    TMP DP  RH WIND       PRES   REMARKS
ROCKFORD       MOSUNNY   78  61  55 CALM      29.86F HX  80
FREEPORT*      SUNNY     73  58  60 CALM      29.87R
ROCHELLE*      SUNNY     77  63  62 CALM      29.86S
DE KALB*         N/A     76  62  62 NW3       29.88R HAZE
PERU*          CLOUDY    76  59  56 CALM      29.86F
$$

ILZ005-006-012>014-019>023-272300-
NORTHEAST ILLINOIS

CITY           SKY/WX    TMP DP  RH WIND       PRES   REMARKS
CHICAGO-OHARE  PTSUNNY   73  56  54 E12       29.86R
CHICAGO-MIDWAY PTSUNNY   72  57  59 E8        29.87R
AURORA         SUNNY     79  58  48 CALM      29.87S HX  80
LANSING*       SUNNY     71  60  69 N8        29.88R
JOLIET*        MOSUNNY   79  60  52 CALM      29.86S HX  80
WAUKEGAN       SUNNY     67  54  63 SE9       29.87S
DUPAGE AIRPORT SUNNY     77  57  50 CALM      29.85S
KANKAKEE*      CLOUDY    82  61  48 CALM      29.87S HX  82
WHEELING       SUNNY     70  57  63 E7        29.89R
MORRIS*        CLOUDY    77  60  55 CALM      29.86R
ROMEOVILLE*    SUNNY     77  62  59 CALM      29.87S
$$

LMZ740>746-272300-
SOUTHERN LAKE MICHIGAN

STATION/POSITION SKY/WX   TEMP    WIND        PRES    VSBY  WAVE
                          AIR SEA DIR/SP/G                  HT/PER
                          (F)     (DEG/KT/KT) (MB)    (MI)  (FT/S)
SOUTHERN BUOY              53 52  360/  4/  4 1012.7          0
WILMETTE HARBOR            53 55                N/A           1
HARRISON CRIB              56      50/  9/  9   N/A
BURNHAM HARBOR             59      40/  4/  7   N/A
CALUMET HARBOR             60      40/  5/  7 1011.7R
BURNS HARBOR               59      60/  6/  7 1012.9R
MICHIGAN CITY              55      30/  7/  7   N/A
MICHIGAN CITY 6N           55 57   40/  4/  4   N/A           1
ST. JOSEPH                 59 60   60/  8/ 12 1011.7F         1/ 2
$$

ILZ025>027-034>036-040-047-049-050-058-095>099-272300-
WEST-CENTRAL ILLINOIS

CITY           SKY/WX    TMP DP  RH WIND       PRES   REMARKS
QUINCY         CLOUDY    75  63  66 SE10      29.83F
GALESBURG*     CLOUDY    73  63  70 SE5       29.83F
MACOMB*        CLOUDY    75  62  64 E7        29.85F
JACKSONVILLE*  CLOUDY    78  63  59 S7        29.85R
PITTSFIELD*    CLOUDY    76  65  70 CALM      29.86R
$$

ILZ028>032-037-038-041>044-048-051>054-059>061-272300-
CENTRAL ILLINOIS

CITY           SKY/WX    TMP DP  RH WIND       PRES   REMARKS
PONTIAC        MOSUNNY   77  64  62 CALM      29.87S
BLOOMINGTON    MOSUNNY   78  62  57 CALM      29.86F HX  80
DECATUR        CLOUDY    77  63  61 NE3       29.86F
PEORIA         CLOUDY    78  62  57 N5        29.84F HX  80
LACON*         PTSUNNY   77  63  63 CALM      29.84F
LINCOLN*       CLOUDY    82  60  47 SE3       29.83F HX  82
SPRINGFIELD    PTSUNNY   80  63  55 E6        29.82F HX  81
TAYLORVILLE    CLOUDY    78  63  58 SE6       29.84S HX  80
$$

ILZ033-039-045-046-055>057-062-063-272300-
EAST-CENTRAL ILLINOIS

CITY           SKY/WX    TMP DP  RH WIND       PRES   REMARKS
CHAMPAIGN      CLOUDY    74  63  68 E6        29.86F
RANTOUL*       CLOUDY    77  65  67 E6        29.86F
MATTOON        PTSUNNY   77  66  68 CALM      29.85R
$$

ILZ079-100>102-272300-
SOUTHWEST ILLINOIS

CITY           SKY/WX    TMP DP  RH WIND       PRES   REMARKS
ALTON          CLOUDY    75  66  73 NE6       29.84R
BELLEVILLE     MOSUNNY   77  68  72 CALM      29.84R
CAHOKIA*       LGT RAIN  75  66  73 SW5       29.84R
SPARTA*        CLOUDY    70  62  76 CALM      29.85R
$$

ILZ064>066-069>071-074>076-080>082-084>086-088>090-092>094-272300-
SOUTH-CENTRAL ILLINOIS

CITY           SKY/WX    TMP DP  RH WIND       PRES   REMARKS
CARBONDALE     CLOUDY    66  65  96 N6        29.81F THUNDER
CAIRO*         TSTM      67  66  96 NE13      29.85F
EFFINGHAM*     PTSUNNY   79  66  64 CALM      29.86S HX  81
MARION         CLOUDY    68  66  94 E12       29.82
MT. VERNON       N/A     66  61  84 N3        29.83R
CENTRALIA*     CLOUDY    76  65  68 SE6       29.83S
SALEM*         CLOUDY    79  67  67 SW8       29.84R HX  81
$$

ILZ067-068-072-073-078-083-087-091-272300-
SOUTHEAST ILLINOIS

CITY           SKY/WX    TMP DP  RH WIND       PRES   REMARKS
LAWRENCEVILLE  CLOUDY    81  68  64 NW6       29.83S HX  84
FLORA*         PTSUNNY   82  68  64 CALM      29.84R THUNDER HX  84
FAIRFIELD*     CLOUDY    68  61  79 N8        29.82F THUNDER
HARRISBURG*    TSTM      71  61  70 SW6G18    29.87R
ROBINSON*      CLOUDY    78  65  62 NW6       29.85S HX  80
CARMI*         CLOUDY    74  66  74 W15G23    29.85R
$$

ABBREVIATIONS USED IN REMARKS
   TC - TEMPERATURE IN CELSIUS
  WCI - WIND CHILL INDEX
   HX - HEAT INDEX
  VSB - VISIBILITY
$$




USA.gov is the U.S. government's official web portal to all federal, state and local government web resources and services.